EDT,Max TemperatureF,Mean TemperatureF,Min TemperatureF,Max Dew PointF,MeanDew PointF,Min DewpointF,Max Humidity, Mean Humidity, Min Humidity, Max Sea Level PressureIn, Mean Sea Level PressureIn, Min Sea Level PressureIn, Max VisibilityMiles, Mean VisibilityMiles, Min VisibilityMiles, Max Wind SpeedMPH, Mean Wind SpeedMPH, Max Gust SpeedMPH,PrecipitationIn, CloudCover, Events, WindDirDegrees
2013-5-1,70,55,40,60,49,36,88,75,62,30.32,30.13,29.90,10,10,7,18,10,26,0.00,1,,316
2013-5-2,52,44,37,43,38,35,99,84,70,30.33,30.27,30.19,10,10,10,16,10,31,0.00,1,,345
2013-5-3,59,48,37,46,40,36,97,83,61,30.25,30.15,30.07,10,10,10,10,5,,0.00,5,,342
2013-5-4,71,56,41,48,41,23,93,57,21,30.16,30.12,30.06,10,10,10,16,5,20,0.00,1,,70
2013-5-5,67,56,44,43,37,27,76,52,31,30.17,30.12,30.06,10,10,7,14,5,22,0.00,0,,60
2013-5-6,63,50,38,44,40,37,95,65,39,30.14,30.10,30.04,10,10,7,12,3,,0.00,0,,351
2013-5-7,64,54,43,41,38,35,83,53,34,30.13,30.08,30.03,10,10,10,12,5,,0.00,0,,50
2013-5-8,71,59,47,47,40,32,88,51,25,30.08,30.04,30.01,10,10,10,8,3,,0.00,0,,308
2013-5-9,66,54,41,49,42,38,99,76,52,30.07,30.01,29.98,10,10,10,18,4,29,0.00,2,Rain,359
2013-5-10,43,40,37,43,39,37,100,93,81,30.06,30.01,29.97,10,9,5,16,11,26,0.00,8,Rain-Snow,53
2013-5-11,45,38,32,43,37,32,100,93,73,29.97,29.84,29.74,10,9,0,18,5,25,0.00,5,Rain-Snow,259
2013-5-12,39,36,32,36,30,25,100,79,61,30.09,29.95,29.78,10,9,1,28,20,38,0.00,7,Rain-Snow,302
2013-5-13,48,41,34,32,27,21,84,60,36,30.18,30.12,30.05,10,10,10,14,10,20,0.00,1,,276
2013-5-14,63,52,41,45,36,24,76,53,39,30.05,29.83,29.63,10,10,10,20,7,28,0.00,3,Rain,138
2013-5-15,70,58,45,49,45,41,91,63,35,29.80,29.68,29.46,10,10,7,21,12,31,0.00,0,,245
2013-5-16,58,50,41,42,40,38,89,65,50,30.12,29.96,29.77,10,10,10,9,4,,0.00,0,,321
2013-5-17,62,51,40,46,42,39,98,73,48,30.23,30.18,30.12,10,10,7,10,3,,0.00,2,,54
2013-5-18,66,57,48,49,45,42,88,66,45,30.22,30.15,30.05,10,10,10,14,5,,0.00,5,Rain,109
2013-5-19,78,66,54,61,51,44,86,63,49,30.04,29.97,29.87,10,9,0,10,5,,0.00,2,,110
2013-5-20,81,69,57,67,61,54,100,82,58,29.90,29.82,29.73,10,8,1,14,6,29,0.00,3,Rain,111
2013-5-21,74,61,48,64,59,48,100,95,67,29.80,29.74,29.70,10,7,1,13,9,16,0.00,6,Rain,100
2013-5-22,59,54,48,59,55,49,100,100,100,29.79,29.73,29.70,10,6,0,12,5,17,0.00,8,Fog-Rain,49
2013-5-23,47,44,40,47,40,35,100,88,71,30.28,30.06,29.79,10,9,1,16,13,24,0.00,4,Rain,356
2013-5-24,49,42,36,37,34,30,89,72,57,30.44,30.38,30.29,10,10,10,10,8,16,0.00,0,,331
2013-5-25,57,44,32,42,37,32,100,76,42,30.48,30.41,30.35,10,10,0,9,2,,0.00,0,Fog,330
2013-5-26,60,47,34,43,37,32,100,68,38,30.41,30.34,30.26,10,10,10,8,2,,0.00,0,,8
2013-5-27,71,57,43,43,37,31,79,49,23,30.28,30.16,30.03,10,10,10,12,6,16,0.00,1,,112
2013-5-28,59,56,52,58,51,37,100,84,44,30.03,29.88,29.77,10,7,1,13,8,,0.00,7,Rain,105
2013-5-29,68,58,48,62,56,48,100,94,79,29.96,29.89,29.77,10,6,0,12,5,17,0.00,6,Fog,232
2013-5-30,86,72,58,69,64,58,100,78,50,29.95,29.92,29.87,10,9,3,14,6,22,0.00,1,,165
2013-5-31,77,68,59,68,63,56,99,83,59,29.93,29.83,29.78,10,10,4,17,8,24,0.00,3,Rain,198